DateTime,F1_A11,F1_S11,BsB_S11,BsG_S11,BsR_S11,BbsB_S11,BbsG_S11,BbsR_S11,BaB_A11,BaG_A11,BaR_A11,T_S11,U_S11,P_S11,T1_A11
2016-12-16T00:00:00Z,0000380,21000600,,,,,,,,,,27.8,00.0,0638.8,34.8
2016-12-16T00:01:00Z,0000380,21000600,,,,,,,,,,27.8,00.0,0638.8,34.8
2016-12-16T00:02:00Z,0000380,21000600,,,,,,,,,,27.8,00.0,0638.7,34.8
2016-12-16T00:03:00Z,0000380,61000600,,,,,,,,,,27.8,00.0,0638.7,34.8
2016-12-16T00:04:00Z,0000380,41000600,0000.55,-000.49,0000.41,0000.37,0000.48,-000.09,0000.11,0000.22,-000.29,27.9,00.0,0639.6,34.8
2016-12-16T00:05:00Z,0000380,01000600,-000.08,0000.18,0000.26,-000.20,0000.38,0000.19,0000.03,0000.06,0000.08,27.9,00.0,0639.7,34.8
2016-12-16T00:06:00Z,0000380,01000600,0000.04,-000.26,0000.13,0000.11,0000.55,-000.04,-000.03,-000.07,0000.01,27.9,00.0,0639.7,34.8
2016-12-16T00:07:00Z,0000380,01000600,0000.19,0000.55,-000.26,-000.66,0000.12,-000.08,0000.02,0000.05,-000.10,27.9,00.0,0639.7,34.8
2016-12-16T00:08:00Z,0000380,01000600,0000.64,0000.24,0000.25,-000.26,0000.30,0000.02,-000.10,-000.01,0000.19,27.9,00.0,0639.7,34.8
2016-12-16T00:09:00Z,0000380,01000600,-001.24,-000.23,0000.01,-000.17,0000.02,0000.25,0000.10,0000.15,0000.03,27.9,00.0,0639.7,34.8
2016-12-16T00:10:00Z,0000380,01000600,0000.72,-000.06,0000.54,-000.27,0000.41,0000.09,0000.06,-000.15,0000.04,27.9,00.0,0639.7,34.8
2016-12-16T00:11:00Z,0000380,01000600,-000.30,-000.24,0000.26,-000.37,-000.01,-000.06,0000.13,0000.01,-000.12,27.9,00.0,0639.7,34.8
2016-12-16T00:12:00Z,0000380,01000600,0000.79,-000.16,0000.12,-000.52,0000.02,0000.16,-000.05,0000.06,-000.03,27.9,00.0,0639.7,34.8
2016-12-16T00:13:00Z,0000380,01000600,0000.02,0000.35,0000.71,0000.41,0000.17,0000.21,-000.22,-000.05,0000.05,27.9,00.0,0639.7,34.8
2016-12-16T00:14:00Z,0000380,01000600,-000.65,0000.23,-000.12,0000.05,-000.12,0000.64,0000.04,0000.10,-000.11,27.9,00.0,0639.7,34.8
2016-12-16T00:15:00Z,0000380,01000600,-000.40,-000.01,0000.12,-000.13,0000.18,0000.05,0000.15,-000.19,0000.15,27.9,00.0,0639.7,34.8
2016-12-16T00:16:00Z,0000380,01000600,0000.74,-000.60,-000.04,-000.27,-000.31,0000.18,0000.03,0000.20,0000.02,27.9,00.0,0639.7,34.8
2016-12-16T00:17:00Z,0000380,01000600,0000.12,0000.10,0000.07,0000.30,0000.16,0000.13,-000.04,-000.03,-000.11,27.9,00.0,0639.6,34.8
2016-12-16T00:18:00Z,0000380,01000600,-000.45,-000.34,-000.41,-000.26,0000.32,0000.11,0000.12,-000.16,-000.19,27.9,00.0,0639.6,34.8
2016-12-16T00:19:00Z,0000380,01000600,-000.73,-000.22,-000.28,-000.27,-000.22,-000.28,-000.16,0000.22,0000.14,27.8,00.0,0639.6,34.8
2016-12-16T00:20:00Z,0000380,01000600,-000.30,0000.26,-000.30,0000.11,0000.25,-000.06,0000.20,-000.11,-000.12,27.8,00.0,0639.6,34.8
2016-12-16T00:21:00Z,0000380,01000600,-000.44,0000.02,0000.15,0000.45,0000.03,0000.06,-000.07,0000.03,0000.10,27.8,00.0,0639.6,34.8
2016-12-16T00:22:00Z,0000380,01000600,-000.29,-000.11,-000.03,0000.35,0000.12,-000.47,0000.18,-000.05,-000.08,27.9,00.0,0639.6,34.8
2016-12-16T00:23:00Z,0000380,01000600,-000.24,-000.04,-000.04,-000.28,0000.23,0000.36,-000.27,0000.05,0000.03,27.9,00.0,0639.6,34.8
2016-12-16T00:24:00Z,0000380,01000600,0000.23,0000.21,0000.32,-000.18,0000.71,0000.07,0000.11,0000.08,0000.35,27.9,00.0,0639.6,34.8
2016-12-16T00:25:00Z,0000380,01000600,0000.03,-000.20,-000.26,-000.38,0000.38,-000.41,0000.03,0000.01,-000.26,27.9,00.0,0639.6,34.8
2016-12-16T00:26:00Z,0000380,01000600,0000.51,-000.09,-000.09,-000.13,0000.24,-000.02,0000.30,-000.04,0000.02,27.8,00.0,0639.6,34.8
2016-12-16T00:27:00Z,0000380,01000600,0000.24,0000.83,0000.16,-000.42,0000.11,-000.34,-000.08,-000.02,0000.11,27.8,00.0,0639.5,34.8
2016-12-16T00:28:00Z,0000380,01000600,-000.33,0000.23,0000.08,0000.20,0000.36,0000.08,-000.04,0000.14,-000.21,27.8,00.0,0639.5,34.8
2016-12-16T00:29:00Z,0000380,01000600,0000.13,-000.38,-000.00,-000.05,0000.23,0000.19,-000.27,-000.07,0000.03,27.8,00.0,0639.5,34.8
2016-12-16T00:30:00Z,0000380,01000600,0001.01,0000.34,-000.32,-000.49,0000.46,0000.00,0000.28,-000.09,0000.10,27.8,00.0,0639.5,34.8
2016-12-16T00:31:00Z,0000380,01000600,0001.00,0000.31,0000.06,-000.27,0000.60,0000.03,-000.03,0000.14,0000.20,27.8,00.0,0639.5,34.8
2016-12-16T00:32:00Z,0000380,01000600,0000.29,0000.17,0000.21,-000.01,-000.25,0000.21,0000.10,-000.07,-000.08,27.8,00.0,0639.4,34.8
2016-12-16T00:33:00Z,0000380,01000600,-000.09,-000.18,-000.20,-000.47,0000.42,-000.13,0000.08,0000.18,-000.18,27.8,00.0,0639.4,34.8
2016-12-16T00:34:00Z,0000380,01000600,0000.33,-000.32,-000.12,0000.60,0000.33,0000.14,-000.00,-000.08,0000.11,27.8,00.0,0639.5,34.8
2016-12-16T00:35:00Z,0000380,01000600,-000.39,0000.40,0000.42,0000.15,0000.31,-000.03,-000.00,-000.04,-000.01,27.8,00.0,0639.4,34.8
2016-12-16T00:36:00Z,0000380,01000600,0000.07,-000.13,-000.09,-000.42,0000.18,0000.03,-000.11,0000.09,-000.35,27.8,00.0,0639.4,34.8
2016-12-16T00:37:00Z,0000380,01000600,0000.40,-000.11,0000.47,-000.03,0000.41,-000.20,0000.06,-000.08,0000.29,27.8,00.0,0639.4,34.8
2016-12-16T00:38:00Z,0000380,01000600,0000.03,-000.14,-000.24,0000.01,-000.08,-000.18,0000.18,0000.22,-000.09,27.8,00.0,0639.4,34.8
2016-12-16T00:39:00Z,0000380,01000600,-000.23,0000.07,-000.58,0000.13,0000.66,-000.26,-000.10,0000.00,0000.19,27.8,00.0,0639.5,34.8
2016-12-16T00:40:00Z,0000380,01000600,0000.79,0000.28,0000.18,0000.09,0000.38,-000.27,0000.02,-000.12,-000.10,27.8,00.0,0639.4,34.8
2016-12-16T00:41:00Z,0000380,01000600,0000.38,0000.05,0000.49,-000.15,0000.26,0000.11,0000.06,0000.04,-000.15,27.8,00.0,0639.4,34.8
2016-12-16T00:42:00Z,0000380,01000600,-000.54,-000.52,0000.55,-000.74,0000.12,-000.13,-000.06,-000.07,0000.03,27.8,00.0,0639.4,34.8
2016-12-16T00:43:00Z,0000380,01000600,0000.13,0000.01,-000.06,0000.65,0000.10,-000.25,0000.04,0000.11,0000.21,27.8,00.0,0639.4,34.8
2016-12-16T00:44:00Z,0000380,01000600,-000.41,-000.03,0000.24,-000.27,0000.47,0000.23,0000.09,0000.09,-000.07,27.8,00.0,0639.4,34.8
2016-12-16T00:45:00Z,0000380,01000600,0000.20,0000.12,0000.19,-000.07,0000.19,0000.03,-000.16,0000.04,0000.06,27.8,00.0,0639.4,34.8
2016-12-16T00:46:00Z,0000380,01000600,-000.12,-000.21,-000.36,-000.21,0000.68,0000.23,-000.07,-000.21,-000.15,27.8,00.0,0639.4,34.8
2016-12-16T00:47:00Z,0000380,01000600,-000.57,-000.69,-000.10,0000.67,0000.20,0000.01,0000.21,-000.08,0000.14,27.8,00.0,0639.3,34.8
2016-12-16T00:48:00Z,0000380,01000600,0001.07,0000.29,0000.16,0000.66,0000.44,0000.10,-000.17,0000.12,0000.00,27.8,00.0,0639.3,34.8
2016-12-16T00:49:00Z,0000380,01000600,0000.30,-000.22,-000.01,-000.12,0000.21,0000.09,0000.05,-000.15,-000.08,27.8,00.0,0639.3,34.8
2016-12-16T00:50:00Z,0000380,01000600,0000.35,-000.29,-000.29,-000.06,-000.07,-000.09,0000.14,0000.17,0000.31,27.8,00.0,0639.3,34.8
2016-12-16T00:51:00Z,0000380,01000600,0000.22,-000.14,0000.21,-000.64,0000.22,0000.03,-000.10,0000.01,-000.28,27.8,00.0,0639.3,34.8
2016-12-16T00:52:00Z,0000380,01000600,-000.21,-000.16,0000.38,0000.12,0000.01,-000.55,0000.04,-000.02,-000.15,27.8,00.0,0639.2,34.8
2016-12-16T00:53:00Z,0000380,01000600,-000.38,0000.14,0000.58,-000.05,0000.11,0000.24,0000.03,0000.14,0000.36,27.7,00.0,0639.2,34.8
2016-12-16T00:54:00Z,0000380,01000600,-000.27,0000.04,0000.46,-000.37,0000.40,0000.01,0000.07,-000.09,0000.14,27.7,00.0,0639.2,34.8
2016-12-16T00:55:00Z,0000380,01000600,0000.70,-000.48,-000.11,0000.02,0000.27,-000.03,-000.08,0000.11,-000.16,27.7,00.0,0639.2,34.8
2016-12-16T00:56:00Z,0000380,01000600,-001.01,-000.07,-000.44,-000.53,0000.49,-000.49,-000.08,0000.05,-000.18,27.7,00.0,0639.2,34.8
2016-12-16T00:57:00Z,0000380,41000600,,,,,,,,,,27.8,00.0,0639.2,34.8
2016-12-16T00:58:00Z,0000380,61000600,,,,,,,,,,27.7,00.0,0638.3,34.8
2016-12-16T00:59:00Z,0000380,21000600,,,,,,,,,,27.7,00.0,0638.2,34.8
2016-12-16T01:00:00Z,0000380,21000600,,,,,,,,,,27.7,00.0,0638.2,34.8
2016-12-16T01:01:00Z,0000380,21000600,,,,,,,,,,27.7,00.0,0638.2,34.8
2016-12-16T01:02:00Z,0000380,21000600,,,,,,,,,,27.7,00.0,0638.2,34.8
2016-12-16T01:03:00Z,0000380,61000600,,,,,,,,,,27.7,00.0,0638.2,34.8
2016-12-16T01:04:00Z,0000380,41000600,0000.12,0000.07,-000.16,0000.17,0000.16,0000.24,-000.18,0000.12,0000.41,27.7,00.0,0639.0,34.8
2016-12-16T01:05:00Z,0000380,01000600,-000.96,-000.18,-000.19,0000.04,0000.10,0000.01,0000.21,-000.16,-000.25,27.7,00.0,0639.1,34.8
2016-12-16T01:06:00Z,0000380,01000600,-000.54,-000.19,0000.30,0000.19,0000.02,0000.05,-000.13,0000.11,0000.13,27.7,00.0,0639.1,34.8
2016-12-16T01:07:00Z,0000380,01000600,-000.90,0000.31,-000.10,0000.91,0000.04,-000.30,0000.18,0000.08,0000.05,27.7,00.0,0639.1,34.8
2016-12-16T01:08:00Z,0000380,01000600,-001.92,0000.32,-000.66,0000.18,-000.23,0000.05,-000.04,-000.09,0000.09,27.7,00.0,0639.1,34.8
2016-12-16T01:09:00Z,0000380,01000600,-000.45,-000.14,0000.03,-000.38,0000.11,-000.11,0000.05,0000.11,0000.11,27.7,00.0,0639.1,34.8
2016-12-16T01:10:00Z,0000380,01000600,-000.66,0000.20,-000.08,0000.80,0000.23,-000.32,0000.05,-000.10,-000.23,27.7,00.0,0639.1,34.8
2016-12-16T01:11:00Z,0000380,01000600,0000.09,0000.15,-000.53,-000.30,0000.14,0000.04,0000.15,-000.00,-000.18,27.7,00.0,0639.1,34.8
2016-12-16T01:12:00Z,0000380,01000600,-000.08,0000.48,-000.41,0000.60,-000.09,-000.17,-000.07,-000.06,0000.28,27.7,00.0,0639.1,34.8
2016-12-16T01:13:00Z,0000380,01000600,0000.36,0000.33,0000.18,-000.06,0000.46,-000.36,-000.07,-000.03,-000.09,27.7,00.0,0639.1,34.8
2016-12-16T01:14:00Z,0000380,01000600,0000.27,0000.60,0000.05,-000.08,0000.27,-000.06,0000.03,0000.20,0000.11,27.7,00.0,0639.1,34.8
2016-12-16T01:15:00Z,0000380,01000600,-000.64,0000.29,0000.07,0000.24,-000.20,0000.33,0000.00,-000.01,-000.22,27.7,00.0,0639.1,34.8
2016-12-16T01:16:00Z,0000380,01000600,-000.07,0000.34,0000.10,-000.76,-000.19,0000.31,-000.02,-000.05,0000.05,27.7,00.0,0639.1,34.8
2016-12-16T01:17:00Z,0000380,01000600,-000.64,0000.53,-000.16,0000.83,0000.56,0000.41,0000.28,-000.03,0000.37,27.7,00.0,0639.1,34.7
2016-12-16T01:18:00Z,0000380,01000600,-000.34,0000.20,-000.25,-000.36,-000.01,0000.18,-000.06,0000.02,-000.42,27.7,00.0,0639.0,34.7
2016-12-16T01:19:00Z,0000380,01000600,0000.57,0000.65,0000.13,-000.10,0000.39,-000.19,0000.02,0000.05,0000.01,27.7,00.0,0639.0,34.7
2016-12-16T01:20:00Z,0000380,01000600,-000.02,-000.12,-000.40,-000.22,0000.34,-000.07,0000.08,0000.05,0000.16,27.7,00.0,0639.0,34.7
2016-12-16T01:21:00Z,0000380,01000600,-000.60,0000.19,0000.07,0000.60,-000.04,-000.55,-000.22,0000.03,-000.11,27.7,00.0,0639.0,34.7
2016-12-16T01:22:00Z,0000380,01000600,0001.06,0001.04,0000.10,0000.13,-000.22,-000.02,0000.12,-000.06,-000.01,27.7,00.0,0639.0,34.8
2016-12-16T01:23:00Z,0000380,01000600,-000.63,-000.18,-000.33,0000.50,-000.21,-000.09,-000.08,0000.04,0000.12,27.7,00.0,0639.0,34.8
2016-12-16T01:24:00Z,0000380,01000600,0000.20,0000.35,-000.31,-000.04,-000.14,-000.22,0000.07,0000.01,0000.05,27.7,00.0,0638.9,34.7
2016-12-16T01:25:00Z,0000380,01000600,-001.14,0000.24,-000.43,-000.34,-000.04,0000.05,-000.02,-000.05,0000.02,27.7,00.0,0638.9,34.7
2016-12-16T01:26:00Z,0000380,01000600,0000.49,-000.37,-000.14,-000.03,-000.29,-000.26,0000.10,0000.00,0000.14,27.7,00.0,0639.0,34.7
2016-12-16T01:27:00Z,0000380,01000600,-000.10,-000.65,0000.18,0000.13,0000.17,-000.18,0000.06,0000.03,-000.08,27.6,00.0,0639.0,34.8
2016-12-16T01:28:00Z,0000380,01000600,-000.08,-000.35,0000.08,0000.58,-000.28,0000.10,-000.20,-000.00,-000.03,27.6,00.0,0639.0,34.8
2016-12-16T01:29:00Z,0000380,01000600,-000.07,-000.25,-000.47,0000.53,0000.08,-000.50,0000.11,-000.07,0000.12,27.7,00.0,0639.0,34.8
2016-12-16T01:30:00Z,0000380,01000600,-001.43,0000.55,-000.39,0000.58,0000.14,-000.47,0000.24,0000.13,-000.09,27.6,00.0,0638.9,34.8
2016-12-16T01:31:00Z,0000380,01000600,0000.90,0000.20,-000.34,0000.22,-000.21,-000.14,-000.19,-000.10,-000.14,27.6,00.0,0638.9,34.8
2016-12-16T01:32:00Z,0000380,01000600,-001.57,0000.17,0000.08,0000.34,0000.04,-000.36,0000.16,0000.01,0000.14,27.6,00.0,0639.0,34.8
2016-12-16T01:33:00Z,0000380,01000600,-000.59,-000.23,0000.03,0000.19,0000.17,0000.15,-000.12,0000.20,-000.06,27.6,00.0,0639.0,34.7
2016-12-16T01:34:00Z,0000380,01000600,0001.11,0000.04,-000.30,-000.33,-000.14,-000.12,0000.20,-000.08,0000.24,27.6,00.0,0639.0,34.8
2016-12-16T01:35:00Z,0000380,01000600,-000.56,-000.19,-000.48,0000.67,0000.39,0000.03,-000.30,0000.02,-000.31,27.6,00.0,0639.0,34.8
2016-12-16T01:36:00Z,0000380,01000600,-000.45,-000.23,-000.01,0000.75,-000.44,0000.15,0000.12,0000.17,0000.23,27.6,00.0,0638.9,34.8
2016-12-16T01:37:00Z,0000380,01000600,-000.08,-000.24,0000.15,0000.41,-000.14,0000.21,-000.08,-000.07,-000.25,27.6,00.0,0639.0,34.8
2016-12-16T01:38:00Z,0000380,01000600,0000.02,0000.09,-000.19,0000.41,0000.31,-000.44,0000.03,-000.18,-000.23,27.6,00.0,0639.0,34.8
2016-12-16T01:39:00Z,0000380,01000600,-000.35,-000.25,-000.01,0000.13,0000.00,-000.09,0000.12,0000.14,0000.31,27.6,00.0,0638.9,34.8
2016-12-16T01:40:00Z,0000380,01000600,-001.07,0000.11,-000.00,0000.49,-000.32,-000.28,0000.02,-000.25,0000.05,27.6,00.0,0638.9,34.8
2016-12-16T01:41:00Z,0000380,01000600,-000.73,0000.12,-000.04,0000.11,0000.09,-000.49,-000.13,0000.28,-000.07,27.6,00.0,0638.9,34.7
2016-12-16T01:42:00Z,0000380,01000600,-000.91,-000.13,-000.12,-000.20,0000.05,-000.51,0000.22,-000.07,-000.02,27.6,00.0,0638.9,34.7
2016-12-16T01:43:00Z,0000380,01000600,-001.24,0000.33,-000.26,0000.91,0000.21,-000.15,-000.11,0000.09,0000.21,27.6,00.0,0638.9,34.7
2016-12-16T01:44:00Z,0000380,01000600,0000.05,-000.21,0000.15,0000.02,0000.18,-000.43,0000.02,0000.06,-000.12,27.6,00.0,0638.8,34.7
2016-12-16T01:45:00Z,0000380,01000600,0000.61,-000.12,-000.05,0000.73,-000.05,0000.22,0000.06,0000.00,-000.03,27.6,00.0,0638.8,34.7
2016-12-16T01:46:00Z,0000380,01000600,-000.62,-000.35,-000.15,0000.15,-000.29,-000.02,0000.10,0000.06,-000.07,27.6,00.0,0638.8,34.7
2016-12-16T01:47:00Z,0000380,01000600,-000.53,-000.41,0000.31,-000.18,-000.10,0000.18,0000.02,-000.05,0000.23,27.6,00.0,0638.8,34.7
2016-12-16T01:48:00Z,0000380,01000600,-000.91,0000.01,-000.23,-000.18,-000.09,0000.10,0000.16,-000.02,-000.40,27.6,00.0,0638.8,34.7
2016-12-16T01:49:00Z,0000380,01000600,-000.31,0000.57,0000.34,0000.03,-000.07,0000.06,-000.01,-000.04,0000.14,27.6,00.0,0638.8,34.7
2016-12-16T01:50:00Z,0000380,01000600,-000.79,-000.29,-000.03,0000.44,0000.01,0000.34,-000.13,-000.00,0000.11,27.6,00.0,0638.7,34.7
2016-12-16T01:51:00Z,0000380,01000600,0000.11,-000.11,-000.33,0000.58,-000.32,-000.37,0000.03,-000.05,-000.04,27.6,00.0,0638.8,34.7
2016-12-16T01:52:00Z,0000380,01000600,-000.35,-000.47,-000.03,-000.08,-000.07,0000.29,0000.23,0000.17,0000.07,27.6,00.0,0638.7,34.7
2016-12-16T01:53:00Z,0000380,01000600,-000.64,-000.44,-000.08,0000.07,-000.13,-000.30,0000.07,0000.03,0000.12,27.6,00.0,0638.7,34.7
2016-12-16T01:54:00Z,0000380,01000600,0000.44,0000.12,-000.17,-000.69,0000.02,-000.14,-000.18,-000.03,-000.15,27.6,00.0,0638.7,34.7
2016-12-16T01:55:00Z,0000380,01000600,-000.71,0000.05,-000.29,0000.78,0000.02,0000.11,0000.13,-000.12,-000.13,27.6,00.0,0638.7,34.7
2016-12-16T01:56:00Z,0000380,01000600,0000.59,0000.02,0000.04,-000.21,-000.02,-000.43,-000.05,0000.10,0000.40,27.5,00.0,0638.7,34.7
2016-12-16T01:57:00Z,0000380,41000600,,,,,,,,,,27.6,00.0,0638.7,34.7
2016-12-16T01:58:00Z,0000380,61000600,,,,,,,,,,27.5,00.0,0637.7,34.7
2016-12-16T01:59:00Z,0000380,21000600,,,,,,,,,,27.5,00.0,0637.7,34.7
2016-12-16T02:00:00Z,0000380,21000600,,,,,,,,,,27.5,00.0,0637.7,34.7
2016-12-16T02:01:00Z,0000380,21000600,,,,,,,,,,27.5,00.0,0637.7,34.7
2016-12-16T02:02:00Z,0000380,21000600,,,,,,,,,,27.5,00.0,0637.7,34.7
2016-12-16T02:03:00Z,0000380,61000600,,,,,,,,,,27.5,00.0,0637.7,34.7
2016-12-16T02:04:00Z,0000380,41000600,-000.76,-000.42,0000.45,-000.63,0000.36,0000.59,0000.00,-000.02,-000.16,27.5,00.0,0638.6,34.7
2016-12-16T02:05:00Z,0000380,01000600,-000.16,-000.47,-000.02,-000.22,-000.10,-000.19,0000.17,0000.11,-000.27,27.6,00.0,0638.7,34.7
2016-12-16T02:06:00Z,0000380,01000600,0000.62,-000.62,-000.08,-000.27,0000.05,0000.15,-000.04,-000.11,-000.00,27.6,00.0,0638.7,34.7
2016-12-16T02:07:00Z,0000380,01000600,0000.23,0000.38,0000.26,0000.01,0000.51,0000.21,0000.06,-000.01,0000.13,27.5,00.0,0638.7,34.7
2016-12-16T02:08:00Z,0000380,01000600,0000.72,0000.70,-000.41,-000.39,0000.05,0000.18,-000.03,0000.13,0000.05,27.5,00.0,0638.6,34.8
2016-12-16T02:09:00Z,0000380,01000600,0000.50,0000.25,0000.37,-000.49,-000.06,0000.15,-000.03,-000.03,0000.18,27.5,00.0,0638.6,34.8
2016-12-16T02:10:00Z,0000380,01000600,-000.16,0000.17,-000.19,-000.48,0000.11,-000.08,-000.02,-000.01,-000.15,27.5,00.0,0638.6,34.7
2016-12-16T02:11:00Z,0000380,01000600,0000.31,-000.06,0000.46,-000.25,0000.51,0000.00,0000.28,0000.11,0000.18,27.5,00.0,0638.6,34.7
2016-12-16T02:12:00Z,0000380,01000600,0000.12,0000.48,0000.18,-000.08,0000.11,-000.06,-000.14,-000.00,-000.21,27.5,00.0,0638.6,34.7
2016-12-16T02:13:00Z,0000380,01000600,-001.02,0000.63,0000.09,-000.38,-000.17,0000.04,-000.04,-000.08,0000.20,27.5,00.0,0638.6,34.7
2016-12-16T02:14:00Z,0000380,01000600,-000.06,0000.29,0000.01,0000.11,0000.05,0000.19,0000.08,-000.11,-000.17,27.5,00.0,0638.6,34.7
2016-12-16T02:15:00Z,0000380,01000600,0000.07,0000.28,0000.01,-000.36,-000.12,-000.06,0000.22,0000.25,0000.20,27.5,00.0,0638.6,34.7
2016-12-16T02:16:00Z,0000380,01000600,0000.13,-000.02,0000.00,-000.42,0000.28,-000.01,-000.29,-000.13,-000.22,27.5,00.0,0638.6,34.8
2016-12-16T02:17:00Z,0000380,01000600,0000.08,0000.66,0000.56,-000.73,0000.25,0000.58,0000.15,0000.17,0000.04,27.5,00.0,0638.7,34.8
2016-12-16T02:18:00Z,0000380,01000600,-000.53,0000.45,-000.17,-001.19,-000.08,-000.02,0000.13,-000.15,-000.13,27.5,00.0,0638.6,34.8
2016-12-16T02:19:00Z,0000380,01000600,-000.06,0000.11,0000.22,-000.53,0000.50,0000.33,-000.21,-000.02,0000.02,27.5,00.0,0638.7,34.8
2016-12-16T02:20:00Z,0000380,01000600,-000.64,-000.26,0000.64,-000.32,0000.28,0000.60,0000.20,0000.06,0000.21,27.5,00.0,0638.6,34.7
2016-12-16T02:21:00Z,0000380,01000600,-000.16,-000.23,0000.26,0000.21,-000.16,0000.15,0000.07,0000.02,0000.20,27.5,00.0,0638.7,34.7
2016-12-16T02:22:00Z,0000380,01000600,0000.04,0000.81,0000.18,0000.61,-000.14,0000.32,-000.01,0000.15,-000.45,27.5,00.0,0638.6,34.7
2016-12-16T02:23:00Z,0000380,01000600,-000.19,-000.20,0000.69,-000.19,0000.41,0000.15,0000.02,0000.11,0000.11,27.5,00.0,0638.6,34.7
2016-12-16T02:24:00Z,0000380,01000600,-001.27,0000.84,0000.00,-000.94,0000.52,0000.31,0000.11,-000.16,0000.30,27.5,00.0,0638.6,34.7
2016-12-16T02:25:00Z,0000380,01000600,-000.75,-000.68,-000.06,-001.07,0000.03,-000.25,-000.03,0000.05,-000.17,27.5,00.0,0638.6,34.7
2016-12-16T02:26:00Z,0000380,01000600,-001.16,0000.44,0000.38,-000.56,0000.46,0000.13,-000.01,0000.18,-000.08,27.5,00.0,0638.6,34.7
2016-12-16T02:27:00Z,0000380,01000600,-000.90,0000.04,0000.08,-000.08,-000.38,0000.35,0000.09,-000.09,0000.16,27.5,00.0,0638.6,34.7
2016-12-16T02:28:00Z,0000380,01000600,0000.89,-000.33,0000.14,-000.22,0000.03,0000.28,0000.02,-000.08,0000.19,27.5,00.0,0638.7,34.7
2016-12-16T02:29:00Z,0000380,01000600,-000.09,0000.62,-000.20,-000.10,0000.44,0000.20,0000.03,0000.10,-000.07,27.5,00.0,0638.7,34.7
2016-12-16T02:30:00Z,0000380,01000600,0000.86,-000.35,0000.75,0000.11,-000.08,0000.15,0000.25,-000.08,-000.19,27.5,00.0,0638.6,34.7
2016-12-16T02:31:00Z,0000380,01000600,-000.20,0000.21,-000.36,-000.70,0000.13,0000.11,0000.24,0000.19,-000.10,27.5,00.0,0638.6,34.7
2016-12-16T02:32:00Z,0000380,01000600,0000.59,-000.35,-000.07,-000.59,-000.12,0000.22,-000.33,-000.09,0000.00,27.5,00.0,0638.6,34.7
2016-12-16T02:33:00Z,0000380,01000600,0000.80,0000.18,-000.20,-000.55,0000.32,0000.28,-000.01,0000.10,0000.11,27.5,00.0,0638.6,34.7
2016-12-16T02:34:00Z,0000380,01000600,0000.31,0000.34,0000.30,-000.08,0000.27,0000.14,0000.18,-000.09,-000.05,27.5,00.0,0638.6,34.7
2016-12-16T02:35:00Z,0000380,01000600,0000.54,0000.26,-000.22,-000.44,0000.13,0000.06,-000.16,-000.01,-000.05,27.5,00.0,0638.5,34.7
2016-12-16T02:36:00Z,0000380,01000600,-000.55,-000.26,-000.09,-000.64,0000.34,-000.02,0000.05,0000.08,0000.06,27.5,00.0,0638.5,34.7
2016-12-16T02:37:00Z,0000380,01000600,0000.68,-000.24,0000.49,-000.48,0000.56,0000.34,0000.13,0000.09,0000.15,27.5,00.0,0638.5,34.7
2016-12-16T02:38:00Z,0000380,01000600,0000.20,0000.03,-000.18,-000.96,0000.45,0000.25,0000.19,-000.12,0000.14,27.5,00.0,0638.4,34.7
2016-12-16T02:39:00Z,0000380,01000600,-000.55,-000.27,-000.38,-000.26,0000.69,0000.14,-000.11,0000.15,-000.70,27.5,00.0,0638.4,34.7
2016-12-16T02:40:00Z,0000380,01000600,-000.35,0000.11,-000.22,-000.24,-000.09,-000.05,-000.07,-000.07,0000.34,27.5,00.0,0638.4,34.7
2016-12-16T02:41:00Z,0000380,01000600,-000.50,-000.23,-000.09,-000.82,0000.51,0000.06,0000.05,0000.07,0000.21,27.5,00.0,0638.4,34.7
2016-12-16T02:42:00Z,0000380,01000600,-000.41,0000.15,0000.36,-000.75,0000.30,0000.33,0000.21,-000.04,-000.14,27.5,00.0,0638.3,34.7
2016-12-16T02:43:00Z,0000380,01000600,0000.36,-000.12,0000.23,-000.79,0000.26,0000.30,-000.16,0000.00,0000.13,27.5,00.0,0638.3,34.7
2016-12-16T02:44:00Z,0000380,01000600,-000.46,-000.18,-000.50,-000.23,0000.23,-000.06,-000.09,0000.13,0000.22,27.5,00.0,0638.3,34.7
2016-12-16T02:45:00Z,0000380,01000600,-000.33,0000.42,0000.33,-000.56,0000.08,0000.55,0000.08,-000.02,-000.02,27.4,00.0,0638.3,34.7
2016-12-16T02:46:00Z,0000380,01000600,0001.10,-000.24,0000.62,0000.08,-000.05,0000.02,-000.03,-000.01,-000.32,27.5,00.0,0638.3,34.7
2016-12-16T02:47:00Z,0000380,01000600,-000.76,0000.33,0000.10,-000.19,0000.36,-000.18,0000.02,-000.03,0000.38,27.4,00.0,0638.3,34.7
2016-12-16T02:48:00Z,0000380,01000600,0000.41,0000.03,-000.04,-000.69,0000.24,0000.26,0000.00,0000.07,-000.07,27.4,00.0,0638.3,34.7
2016-12-16T02:49:00Z,0000380,01000600,-000.55,-000.49,-000.12,-000.49,0000.03,-000.20,-000.23,-000.00,0000.05,27.4,00.0,0638.3,34.7
2016-12-16T02:50:00Z,0000380,01000600,-001.03,0000.08,0000.59,0000.06,0000.30,0000.25,0000.40,-000.08,-000.24,27.4,00.0,0638.3,34.7
2016-12-16T02:51:00Z,0000380,01000600,-000.15,0000.31,0000.49,-000.48,-000.11,-000.11,0000.19,0000.21,0000.08,27.4,00.0,0638.3,34.7
2016-12-16T02:52:00Z,0000380,01000600,0000.54,0000.00,-000.05,0000.19,-000.49,0000.02,-000.17,0000.01,0000.31,27.4,00.0,0638.3,34.7
2016-12-16T02:53:00Z,0000380,01000600,-000.32,0000.59,0000.00,-000.66,0000.22,0000.32,-000.07,-000.04,-000.21,27.4,00.0,0638.2,34.7
2016-12-16T02:54:00Z,0000380,01000600,0000.29,0000.48,-000.40,-000.08,0000.24,0000.06,0000.11,0000.01,-000.19,27.4,00.0,0638.3,34.7
2016-12-16T02:55:00Z,0000380,01000600,-000.51,-000.51,0000.29,-000.03,0000.00,-000.03,-000.06,0000.03,-000.23,27.3,00.0,0638.2,34.7
2016-12-16T02:56:00Z,0000380,01000600,0000.03,0000.37,0000.07,-000.55,0000.23,0000.06,-000.20,0000.06,0000.34,27.3,00.0,0638.2,34.7
2016-12-16T02:57:00Z,0000380,41000600,,,,,,,,,,27.4,00.0,0638.2,34.7
2016-12-16T02:58:00Z,0000380,61000600,,,,,,,,,,27.3,00.0,0637.3,34.7
2016-12-16T02:59:00Z,0000380,21000600,,,,,,,,,,27.3,00.0,0637.3,34.7
2016-12-16T03:00:00Z,0000380,21000600,,,,,,,,,,27.3,00.0,0637.2,34.7
2016-12-16T03:01:00Z,0000380,21000600,,,,,,,,,,27.3,00.0,0637.2,34.7
2016-12-16T03:02:00Z,0000380,21000600,,,,,,,,,,27.3,00.0,0637.2,34.7
2016-12-16T03:03:00Z,0000380,61000600,,,,,,,,,,27.3,00.0,0637.2,34.7
2016-12-16T03:04:00Z,0000380,41000600,-000.25,-000.03,-000.27,0000.11,0000.02,-000.16,-000.04,0000.06,-000.14,27.3,00.0,0638.1,34.7
2016-12-16T03:05:00Z,0000380,01000600,0000.81,0000.20,-000.50,0000.67,-000.36,0000.09,0000.19,0000.09,-000.37,27.3,00.0,0638.2,34.7
2016-12-16T03:06:00Z,0000380,01000600,-000.72,-000.15,0000.27,0000.65,0000.01,0000.01,-000.16,-000.02,0000.50,27.3,00.0,0638.2,34.7
2016-12-16T03:07:00Z,0000380,01000600,0000.08,0000.04,-000.02,0000.06,-000.43,-000.02,-000.01,-000.07,-000.19,27.3,00.0,0638.2,34.7
2016-12-16T03:08:00Z,0000380,01000600,0000.41,0000.06,0000.02,0000.17,-000.30,0000.17,-000.05,-000.07,0000.03,27.3,00.0,0638.2,34.7
2016-12-16T03:09:00Z,0000380,01000600,0000.08,0000.90,-000.39,0000.35,0000.22,0000.20,0000.03,0000.17,-000.15,27.3,00.0,0638.2,34.7
2016-12-16T03:10:00Z,0000380,01000600,-000.46,0000.57,-000.19,0000.36,-000.02,-000.08,0000.05,-000.02,0000.18,27.3,00.0,0638.2,34.7
2016-12-16T03:11:00Z,0000380,01000600,-000.31,-000.14,-000.01,0000.29,-000.21,0000.32,-000.11,-000.13,-000.05,27.3,00.0,0638.2,34.7